Portland, OR

10:38 PM PDT on May 22, 2017 (GMT -0700)
Portland International

Weather History for KPDX - June, 2013

Change the Weather History Date:

Thursday, June 20, 2013

  Actual Average Record
Temperature  
Mean Temperature 61 °F 64 °F  
Max Temperature 68 °F 74 °F 95 °F (1970)
Min Temperature 54 °F 54 °F 44 °F (1964)
Degree Days  
Heating Degree Days 4 3  
Month to date heating degree days 45 72  
Since 1 June heating degree days 45 72  
Since 1 July heating degree days 3984 4259  
Cooling Degree Days 0 2  
Month to date cooling degree days 19 24  
Year to date cooling degree days 34 41  
Since 1 June cooling degree days 19 24  
Growing Degree Days 11 (Base 50)    
Moisture  
Dew Point 50 °F    
Average Humidity 69    
Maximum Humidity 93    
Minimum Humidity 45    
Precipitation  
Precipitation 0.11 in 0.05 in 1.46 in (1984)
Month to date precipitation 0.70 1.32  
Year to date precipitation 13.85 18.74  
Snow  
Snow 0.00 in - - ()
Month to date snowfall 0.0  
Since 1 June snowfall 0.0  
Snow Depth 0.00 in    
Sea Level Pressure  
Sea Level Pressure 30.08 in    
Wind  
Wind Speed 6 mph (SW)    
Max Wind Speed 15 mph    
Max Gust Speed 20 mph    
Visibility 10 miles    
Events Rain    
T = Trace of Precipitation, MM = Missing Value Source: NWS Daily Summary

Daily Weather History Graph

Daily Weather History Graph

Search for Another Location

Airport or City:

Trip Planner

Search our weather history database for the weather conditions in past years. The results will help you decide how hot, cold, wet, or windy it might be!

Date:

Astronomy

Jun. 20, 2013 Rise Set
Actual Time 5:21 AM PDT 9:03 PM PDT
Civil Twilight 4:43 AM PDT 9:41 PM PDT
Nautical Twilight 3:51 AM PDT 10:32 PM PDT
Astronomical Twilight 2:42 AM PDT 11:42 PM PDT
Moon 6:06 PM PDT (6/20) 2:58 AM PDT (6/20)
Length of Visible Light 16h 58m
Length of Day
15h 41m
Waxing Gibbous, 89% of the Moon is Illuminated
Jun 20
Waxing Gibbous
Jun 23
Full
Jun 29
Last Quarter
Jul 8
New
Jul 15
First Quarter

Hourly Weather History & Observations

Time (PDT) Temp. Dew Point Humidity Pressure Visibility Wind Dir Wind Speed Gust Speed Precip Events Conditions
12:53 AM 57.9 °F 48.9 °F 72% 30.09 in 10.0 mi SW 3.5 mph - 0.00 in Rain Light Rain
1:53 AM 55.9 °F 51.1 °F 84% 30.10 in 10.0 mi SSW 8.1 mph - 0.03 in Rain Light Rain
2:53 AM 55.0 °F 52.0 °F 89% 30.09 in 8.0 mi South 9.2 mph - 0.01 in Rain Light Rain
3:53 AM 54.0 °F 51.1 °F 90% 30.07 in 10.0 mi SSW 9.2 mph - 0.02 in   Overcast
4:53 AM 54.0 °F 51.1 °F 90% 30.07 in 10.0 mi SSW 9.2 mph - 0.00 in   Overcast
5:53 AM 54.0 °F 51.1 °F 90% 30.08 in 10.0 mi SSW 5.8 mph - 0.00 in Rain Light Rain
6:53 AM 54.0 °F 51.1 °F 90% 30.08 in 7.0 mi South 3.5 mph - 0.05 in Rain Light Rain
7:53 AM 55.0 °F 51.1 °F 86% 30.07 in 10.0 mi SSW 4.6 mph - 0.00 in   Mostly Cloudy
8:53 AM 55.9 °F 51.1 °F 84% 30.07 in 10.0 mi Variable 3.5 mph - N/A   Mostly Cloudy
9:53 AM 57.9 °F 51.1 °F 78% 30.08 in 10.0 mi Calm Calm - N/A   Mostly Cloudy
10:08 AM 57.2 °F 51.8 °F 82% 30.08 in 10.0 mi SW 3.5 mph - N/A   Overcast
10:53 AM 59.0 °F 50.0 °F 72% 30.07 in 10.0 mi SW 5.8 mph - N/A   Mostly Cloudy
11:53 AM 62.1 °F 48.9 °F 62% 30.06 in 10.0 mi SW 6.9 mph - N/A   Mostly Cloudy
12:53 PM 66.0 °F 48.9 °F 54% 30.05 in 10.0 mi South 9.2 mph - N/A   Mostly Cloudy
1:53 PM 68.0 °F 48.0 °F 49% 30.05 in 10.0 mi WSW 15.0 mph - N/A   Mostly Cloudy
2:53 PM 64.0 °F 53.1 °F 67% 30.06 in 10.0 mi Calm Calm - 0.00 in   Mostly Cloudy
3:53 PM 68.0 °F 46.9 °F 47% 30.06 in 10.0 mi Variable 3.5 mph - N/A   Overcast
4:53 PM 68.0 °F 48.0 °F 49% 30.06 in 10.0 mi SW 6.9 mph - N/A   Overcast
5:53 PM 66.0 °F 51.1 °F 59% 30.07 in 10.0 mi Calm Calm - N/A   Overcast
6:53 PM 64.9 °F 50.0 °F 58% 30.08 in 10.0 mi North 8.1 mph - N/A   Mostly Cloudy
7:53 PM 64.0 °F 48.9 °F 58% 30.10 in 10.0 mi North 5.8 mph - N/A   Mostly Cloudy
8:53 PM 62.1 °F 46.9 °F 58% 30.10 in 10.0 mi North 9.2 mph - N/A   Mostly Cloudy
9:53 PM 60.1 °F 48.0 °F 64% 30.13 in 10.0 mi North 8.1 mph - N/A   Mostly Cloudy
10:53 PM 59.0 °F 48.0 °F 67% 30.15 in 10.0 mi North 5.8 mph - N/A   Mostly Cloudy
11:53 PM 57.9 °F 48.9 °F 72% 30.15 in 10.0 mi North 3.5 mph - N/A   Mostly Cloudy